Regional Weather Roundup
Issued by NWS Charleston, SC

Current Version | Previous Version | Graphics & Text | Print | Product List | Glossary On
Versions: 1 2 3 4 5 6 7 8 9 10 11 12 13 14 15 16 17 18 19 20 21 22 23 24 25 26 27 28 29 30 31 32 33 34 35 36 37 38 39 40 41 42 43 44 45 46 47 48 49 50
343 ASUS42 KCHS 110028 RWRCHS REGIONAL WEATHER ROUNDUP NATIONAL WEATHER SERVICE CHARLESTON SC 700 PM EST WED FEB 10 2016 NOTE: "FAIR" INDICATES FEW OR NO CLOUDS BELOW 12,000 FEET WITH NO SIGNIFICANT WEATHER AND/OR OBSTRUCTIONS TO VISIBILITY. NOT ALL STATIONS ARE QUALITY CONTROLLED BY THE NATIONAL WEATHER SERVICE. USE DATA WITH CAUTION...ESPECIALLY DEWPOINT OBSERVATIONS. SCZ027-030-031-034>040-042>050-110100- ...SOUTHEAST SOUTH CAROLINA... CITY SKY/WX TMP DP RH WIND PRES REMARKS N CHARLESTON CLEAR 38 10 31 W9G18 30.10R WCI 31 6HR MIN TEMP: 38; 6HR MAX TEMP: 44; WATERFRONT PRK N/A 39 14 36 W5 29.93R WCI 36 MOUNT PLEASANT FAIR 37 14 38 W6 30.10R WCI 33 JOHNS ISLAND FAIR 37 12 35 W9G15 30.12R WCI 31 PINOPOLIS N/A 39 16 38 W13 29.99R WCI 32 MONCKS CORNER FAIR 34 7 32 CALM 30.09R SUMMERVILLE NOT AVBL BEAUFORT MCAS CLEAR 39 13 34 W10 30.14R WCI 32 6HR MIN TEMP: 38; 6HR MAX TEMP: 45; BEAUFORT ARPT FAIR 39 14 35 W14G20 30.14R WCI 31 HILTON HEAD IS CLEAR 41 16 36 W7G16 30.15R WALTERBORO CLEAR 37 12 35 W8 30.12R WCI 31 ALLENDALE FAIR 37 12 35 CALM 30.12R ...SOUTHERN MIDLANDS AND PEE DEE... CITY SKY/WX TMP DP RH WIND PRES REMARKS GEORGETOWN NOT AVBL KINGSTREE NOT AVBL ORANGEBURG CLEAR 36 9 32 W12 30.09R WCI 28 6HR MIN TEMP: 36; 6HR MAX TEMP: 41; BARNWELL FAIR 36 14 41 SW6 30.12R WCI 31 AIKEN FAIR 32 10 40 W9 30.12R WCI 24 MANNING FAIR 34 9 35 CALM 30.09R COLUMBIA PTCLDY 35 8 32 W12 30.08R WCI 27 6HR MIN TEMP: 35; 6HR MAX TEMP: 41; SUMTER CLEAR 33 9 36 W7 30.04R WCI 27 6HR MIN TEMP: 33; 6HR MAX TEMP: 40; FLORENCE CLEAR 35 11 36 W13 30.04R WCI 26 6HR MIN TEMP: 35; 6HR MAX TEMP: 39; MYRTLE BEACH CLEAR 37 14 38 W12 30.06R WCI 30 N MYRTLE BEACH CLEAR 36 16 44 W6 30.03R WCI 31 6HR MIN TEMP: 36; 6HR MAX TEMP: 41; $$ GAZ063-065-086>088-099>101-113>116-118-119-134>141-150-110100- ...SOUTHEAST GEORGIA... CITY SKY/WX TMP DP RH WIND PRES REMARKS SAVANNAH ARPT CLEAR 36 15 42 W8 30.16R WCI 30 6HR MIN TEMP: 36; 6HR MAX TEMP: 45; HUNTER AAF CLEAR 38 16 39 W7 30.13R WCI 33 6HR MIN TEMP: 38; 6HR MAX TEMP: 45; FORT STEWART CLEAR 39 15 37 W3 30.15R 6HR MIN TEMP: 39; 6HR MAX TEMP: 44; STATESBORO CLEAR 41 6 23 W5 30.15R SYLVANIA CLEAR 38 19 46 W3 30.15R CLAXTON FAIR 39 20 45 SW3 30.17R ...CSRA...CENTRAL AND FAR SOUTHEAST GEORGIA... CITY SKY/WX TMP DP RH WIND PRES REMARKS THOMSON CLEAR 36 14 41 W5 30.16S WCI 32 AUGUSTA-BUSH CLEAR 35 10 35 W6 30.12R WCI 30 6HR MIN TEMP: 35; 6HR MAX TEMP: 41; AUGUSTA-DANIEL NOT AVBL SWAINSBORO FAIR 36 14 41 W3 30.15S VIDALIA CLEAR 37 18 44 SW6 30.16S WCI 33 EASTMAN FAIR 39 14 36 CALM 30.20R HAZLEHURST FAIR 39 17 41 CALM 30.17S ALMA CLEAR 39 17 41 W5 30.18R WCI 36 6HR MIN TEMP: 39; 6HR MAX TEMP: 45; WAYCROSS CLEAR 42 22 46 W6 30.20S JESUP FAIR 41 23 48 CALM 30.20R BAXLEY FAIR 41 19 42 W5 30.18R BRUNSWICK CLEAR 41 19 42 W5 30.20R SAINT SIMONS CLEAR 42 17 36 W8 30.19R 6HR MIN TEMP: 42; 6HR MAX TEMP: 47; $$ SCZ027-028-034-036>038-045-046-048>050-GAZ119-141-110100- ...LAKE AND SUPPLEMENTAL COASTAL OBSERVATIONS... STATION/POSITION TIME TEMP WIND PRES WAVE SWELL AIR SEA DIR/SP/G HT/PER HT/PER/DIR (UTC) (F) (DEG/KT/KT) (MB) (FT/S) (FT/S/D) WINYAH BAY 2300 39 290/ 11 1016.0R LAKE MURRAY 2300 37 270/ 15/ 21 1016.9R ACE BASIN NERRS 2300 39 290/ 4 1019.0 FORT PULASKI 0000 40 50 1021.4R SAPELO ISLAND 0000 42 260/ 8 1022.0R $$ ANZ835-935-AMZ111-154-330-350-352-354-370-450-454-472-110100- ...C-MAN AND BUOY OBSERVATIONS... STATION/POSITION TIME TEMP WIND PRES WAVE SWELL AIR SEA DIR/SP/G HT/PER HT/PER/DIR (UTC) (F) (DEG/KT/KT) (MB) (FT/S) (FT/S/D) BUOY 41004 2350 45 63 280/ 25/ 33 1017.3R 7/ 7 2/14 BUOY 41008 2350 44 53 280/ 21/ 27 1021.5R 4/ 5 FOLLY BEACH CMAN 0000 37 270/ 6/ 9 1019.6R CAPERS NEARSHORE 2308 42 290/ 21/ 29 1017.1R FRIPP NEARSHORE 2300 43 290/ 25/ 29 1018.8R STATION/POSITION TIME TEMP WIND PRES WAVE SWELL AIR SEA DIR/SP/G HT/PER HT/PER/DIR (UTC) (F) (DEG/KT/KT) (MB) (FT/S) (FT/S/D) 5E ST. MARYS GA 2351 55 N/A 3/14 2/ 90/14 FRYING PAN BUOY 0000 43 60 280/ 25/ 31 1016.4R BUOY 41025 2350 44 72 300/ 19/ 27 1012.3R 5/14 3/ 80/14 CAPE LOOKOUT NC NOT AVBL BUOY 41002 2350 56 68 270/ 33/ 43 N/A 16/10 BUOY 41010 2320 60 72 1020.2R ST AUGUSTINE FL 0000 47 56 300/ 7/ 9 1023.4R $$

USA.gov is the U.S. government's official web portal to all federal, state and local government web resources and services.